Погода в Астане

Погода в Астане : погода сейчас, прогноз погоды и архив. Всё, что Вы хотите узнать о погоде в Астане!

Хотите узнать прогноз погоды Астана? Тогда Вам сюда: Погода Астана

Поиск расширенной информации на нашем сайте:

Другие новости

Новости СМИ2

Главная страница сайта

Новости сайта

02.10.2013

Напоминаем, что на нашем новом сайте вы можете получить высокодетализированные прогнозы погоды по пунктам России, СНГ и мира (включающие важные для авиации метеовеличины, такие как направление и скорость ветра, видимость, явления погоды, количество и форма облачности, нижняя и верхняя граница облачности), а также ознакомиться с разнообразными материалами по авиационной метеорологии и подборкой полезных ссылок на эту тему.

Сайт Метеоцентр.Азия посвящён разработке технологий оптимизации авиаметеорологического обслуживания, включая проектирование и перспективное создание нескольких автоматизированных авиаметеорологических систем:
- система выпуска высокодетальных прогностических карт явлений погоды для нижнего воздушного пространства по России и ближнему зарубежью;
- система верификации прогнозов TAF (выпускаемых синоптиками официальных АМСГ РФ и ближнего зарубежья) и AUTOTAF (выпускаемых сайтом Метеоцентр.Азия) - выявление ошибок, онлайн-сопоставление с фактической погодой METAR, автоматическое внесение коррективов в прогнозы при резком отклонении фактической погоды от прогноза, подсчёт оправдываемости прогнозов по элементам и в целом;
- система обработки, анализа и отображения авиаметеорологической информации для применения провайдерами метеорологической информации.


Погода в Астане - сегодня

Время (UTC), дата Ветер
(°,м/с) 
Видим.   Явления Облачность Т
(°С)
Тd
(°С)
f(%) Тe
(°С)
Pmin
(гПа)
dP
(гПа)
Po
(мм)
O2
(г/м3)
Тmin Tmax R s Состояние
почвы
00 24.03.17 100 (В) н/о    10/0 верхняя 
[Ci fib]
-3.2 -11.2 54 -4  1022.9  -2.3  734  300           
03 24.03.17 190 (Ю) 10 км    10/0 средняя, верхняя 
[Ac cast|Ci fib]
-1.7 -7 67 -4  1021.3  -1.3  733  298        22  мокрый или
старый снег
50-90% 
06 24.03.17 190 (Ю) 10 км  {ливн. осадки}  10/10 750 м кучево-дожд. 
[Cb cap]
+2.1 -1.7 76 +1  1018.4  -2.1  732  293  -4.1         
09 24.03.17 200 (Ю) 10 км  {ливн. осадки}  10/10 870 м кучево-дожд. 
[Cb cap]
+2.3 -0.1 84 +1  1016.5  -1.8  730  292           
12 24.03.17 190 (Ю) 4000 м  слаб. ливневой дождь  10/10 200 м кучево-дожд. 
[Cb cap]
+1 -0.2 92 -1  1016.1  -0.6  730  293           
15 24.03.17 190 (Ю) н/о  {ливн. осадки}  10/10 150 м 
[St]
+0.8 -0.1 94 1016.3  0.2  730  293    +2.4  0.9     
18 24.03.17 220 (ЮЗ) н/о  {ливн. осадки}  10/10 150 м 
[St]
+0.5 -0.2 95 1016.6  0.2  730  294    +2.4  0.9     
21 24.03.17 260 (З) н/о  слаб. ливневой снег  10/10 300 м кучево-дожд. 
[Cb cap]
-0.2 -0.9 95 -3  1017.2  0.5  731  295           
00 25.03.17 250 (З) н/о  снежные зёрна{ливн. осадки}  10/10 300 м 
[St]
-1.2 -2 94 -2  1019  1.5  732  296           
03 25.03.17 280 (З) 10 км  {снег}  10/10 150 м 
[St]
-1.7 -2.8 92 -4  1020.9  1.8  733  297      0.3  20  мокрый или
старый снег
50-90% 
06 25.03.17 280 (З) 10 км  {снег}  9/9 300 м 
[Sc]
-2.4 -5.2 81 -3  1022.7  1.6  734  299  -2    0.3     
09 25.03.17 260 (З) 10 км    8/8 1500 м 
[Sc]
+0.3 -3.6 75 1023.2  0.9  735  296           
12 25.03.17 270 (З) 10 км    9/9 300 м 
[Sc]
+0.1 -2.6 82 -1  1024.4  1.1  736  297           
15 25.03.17 250 (З) н/о  дымка  10/10 100 м 
[Sc]
-1.8 -2.9 92 -1  1025.2  0.5  736  299    +1.4       
18 25.03.17 190 (Ю) н/о  дымка  10/10 100 м 
[St]
-2.2 -2.8 96 -2  1025.5  0.2  736  299    +1.4       
21 25.03.17 210 (ЮЗ) н/о  дымка  10/10 200 м 
[St]
-2.6 -3.7 92 -4  1025.5  -0.1  736  300           
00 26.03.17 170 (Ю) н/о  дымка  10/10 200 м 
[St]
-3.1 -4.8 88 -4  1023.8  -1.7  735  300           
03 26.03.17 090 (В) 4000 м  дымка  10/0 средняя 
[As op]
-2.7 -5 84 -2  1021.8  -1.8  734  299        17  мокрый или
старый снег
50-90% 
06 26.03.17 160 (Ю) 10 км    10/0 средняя 
[As op]
-0.1 -3.5 78 +1  1019.6  -1.7  732  295  -3.9         
09 26.03.17 140 (ЮВ) 2000 м  снег  10/0 средняя 
[As op]
+0.7 -0.8 90 +1  1015  -4.3  729  293           
12 26.03.17 180 (Ю) 4000 м  слаб. снег  10/0 средняя 
[As op]
+0.8 +0.1 95 +1  1012.5  -2.4  727  292           
15 26.03.17 320 (СЗ) н/о  слаб. снег  10/9 100 м средняя 
[St|As op]
+0.3 -0.1 97 +1  1012.7  0.1  727  293    +1.5     
18 26.03.17 290 (З) н/о  слаб. снег  10/9 200 м средняя 
[St|As op]
-2.1 -2.9 94 -5  1016.3  3.1  730  297    +1.5     
21 26.03.17 270 (З) н/о  {снег}  10/10 120 м 
[St]
-2.4 -3.2 94 -5  1018.7  2.2  731  298           
00 27.03.17 200 (Ю) н/о  дымка{снег}  10/10 100 м 
[St]
-1.5 -1.9 97 -3  1019.8  1.2  732  297           
Время (UTC), дата Ветер
(°,м/с) 
Видим.   Явления Облачность Т
(°С)
Тd
(°С)
f(%) Тe
(°С)
Pmin
(гПа)
dP
(гПа)
Po
(мм)
O2
(г/м3)
Тmin Tmax R s Состояние
почвы

Для получения пояснительной информации подведите курсор к названию столбца.

ПОГОДА в Астане - архив

Всё, что Вы хотите узнать о погоде в Астане - удобно и подробно!

Выберите нужную дату (начиная с 1 января 2015* года) и нажмите кнопку "Найти".
Будут отображены архивные сводки погоды по пункту Астана, начиная с указанной даты.


Отображать данные в формате CSV (для использования в таблицах Excel)


Внимание! Наш архив погоды предназначен исключительно для личного некоммерческого использования в познавательных целях. Если Вам необходимы официальные справки о состоянии погоды (для производственных, юридических, коммерческих и т.п. целей), обращайтесь в органы Росгидромета.

*Примечание: данная дата относится к архиву по метеостанциям СССР (Россия, СНГ, Балтия).
Архив по метеостанциям Зарубежной Европы и Азии (кроме Китая) хранится 10 дней, по другим регионам земного шара (Китай, Африка, Америка, Австралия, Океания) - 1 день.

Астана - район местоположения метеостанции


Название, широта, долгота, высота метеостанции:
Астана (город) 51.1°ш. 71.4°д. 350 м над ур. моря [Казахстан]

Дополнительная информация

В oтличие oт бoльшинства пoгoдных сайтoв мы публикуем пoдрoбную метеoинфoрмацию в детальнoм прoфессиoнальнoм фoрмате.

Характеристики температуры и влажнoсти вoздуха измеряются на высoте 2 м в тени вдали oт зданий и деревьев.
Скoрoсть ветра измеряется на высoте 10 м (на урoвне рoста челoвека скoрoсть ветра ниже в 1.5-2 раза). Если метеoстанция нахoдится в гoрoде или в лесу, тo скoрoсть ветра занижена на 2-4 м/с пo сравнению с oткрытым местoм. Скoрoсть ветра над акватoриями крупных рек и oзёр, а также на вершинах хoлмoв на 2-5 м/с выше, чем в oбычных услoвиях.
Атмoсфернoе давление в разных тoчках местнoсти мoжет значительнo oтличаться oт давления на метеoстанции, в зависимoсти oт услoвий рельефа (при пoдъёме на 10 м давление пoнижается примернo на 1 мм рт.ст.).